Weather History for Jaipur, India

Change the Weather History Date:

Sunday, December 2, 2012

  Actual Average Record
Temperature  
Mean Temperature 61 °F -  
Max Temperature 76 °F - - ()
Min Temperature 46 °F - - ()
Degree Days  
Heating Degree Days 4    
Growing Degree Days 11 (Base 50)    
Moisture  
Dew Point 40 °F    
Average Humidity 44    
Maximum Humidity 66    
Minimum Humidity 21    
Precipitation  
Precipitation 0.00 in - - ()
Sea Level Pressure  
Sea Level Pressure 30.04 in    
Wind  
Wind Speed 1 mph ()    
Max Wind Speed 7 mph    
Max Gust Speed -    
Visibility 1.7 miles    
Events      
T = Trace of Precipitation, MM = Missing Value Source: Averaged Metar Reports

Daily Weather History Graph

Daily Weather History Graph

Search for Another Location

Airport:

Trip Planner

Search our weather history database for the weather conditions in past years. The results will help you decide how hot, cold, wet, or windy it might be!

Date:

Astronomy

Dec. 02, 2012 Rise Set
Actual Time 6:59 AM IST 5:33 PM IST
Civil Twilight 6:34 AM IST 5:58 PM IST
Nautical Twilight 6:05 AM IST 6:27 PM IST
Astronomical Twilight 5:37 AM IST 6:55 PM IST
Moon 8:47 PM IST (12/2) 9:37 AM IST (12/2)
Length of Visible Light 11h 24m
Length of Day
10h 33m
Waning Gibbous, 88% of the Moon is Illuminated
Dec 2
Waning Gibbous
Dec 6
Last Quarter
Dec 13
New
Dec 20
First Quarter
Dec 28
Full

Hourly Weather History & Observations

Time (IST) Temp. Dew Point Humidity Pressure Visibility Wind Dir Wind Speed Gust Speed Precip Events Conditions
12:00 AM 55.4 °F 39.2 °F 54% 30.04 in 1.6 mi Calm Calm - N/A   Smoke
1:00 AM 55.4 °F 37.4 °F 51% 30.04 in 1.6 mi Calm Calm - N/A   Smoke
2:00 AM 55.4 °F 39.2 °F 54% 30.01 in 1.6 mi Calm Calm - N/A   Smoke
2:30 AM 54 °F 38 °F 44% 29.99 in 1 mi Calm Calm - -   Smoke
3:00 AM 50.0 °F 37.4 °F 62% 30.01 in 1.6 mi Calm Calm - N/A   Smoke
4:00 AM 50.0 °F 37.4 °F 62% 30.01 in 1.6 mi Calm Calm - N/A   Smoke
5:00 AM 50.0 °F 37.4 °F 62% 30.01 in 1.6 mi Calm Calm - N/A   Smoke
6:00 AM 50.0 °F 39.2 °F 66% 30.01 in 1.6 mi Calm Calm - N/A   Smoke
7:00 AM 51.8 °F 39.2 °F 62% 30.04 in 1.6 mi Variable 2.3 mph - N/A   Smoke
8:00 AM 55.4 °F 39.2 °F 54% 30.06 in 1.6 mi Calm Calm - N/A   Smoke
8:30 AM 58 °F 41 °F 42% 30.06 in 1 mi East 2.3 mph - -   Haze
10:00 AM 66.2 °F 37.4 °F 35% 30.12 in 2.5 mi ESE 6.9 mph - N/A   Haze
11:00 AM 68.0 °F 37.4 °F 33% 30.12 in 2.5 mi ESE 6.9 mph - N/A   Haze
11:30 AM 71 °F 40 °F 21% 30.06 in 2 mi SSE 4.6 mph - -   Haze
12:00 PM 69.8 °F 37.4 °F 31% 30.09 in 2.5 mi SSE 5.8 mph - N/A   Haze
1:00 PM 71.6 °F 39.2 °F 31% 30.06 in 2.5 mi Variable 4.6 mph - N/A   Haze
2:00 PM 73.4 °F 37.4 °F 27% 30.04 in 2.5 mi Variable 1.2 mph - N/A   Haze
2:30 PM 74 °F 42 °F 21% 29.99 in 2 mi SE 2.3 mph - -   Haze
3:00 PM 73.4 °F 39.2 °F 29% 30.04 in 1.2 mi Variable 2.3 mph - N/A   Haze
4:00 PM 73.4 °F 39.2 °F 29% 30.01 in 2.5 mi Variable 3.5 mph - N/A   Haze
5:00 PM 71.6 °F 39.2 °F 31% 30.01 in 2.5 mi Variable 3.5 mph - N/A   Haze
5:30 PM 69 °F 48 °F 35% 29.97 in 2 mi Calm Calm - -   Haze
6:00 PM 68.0 °F 42.8 °F 40% 30.04 in 2.2 mi Calm Calm - N/A   Haze
7:00 PM 64.4 °F 42.8 °F 45% 30.04 in 1.6 mi Calm Calm - N/A   Haze
8:00 PM 62.6 °F 42.8 °F 48% 30.06 in 1.2 mi Calm Calm - N/A   Haze
8:30 PM 63 °F 48 °F 48% 30.02 in 1 mi Calm Calm - -   Haze
9:00 PM 60.8 °F 42.8 °F 52% 30.06 in 1.2 mi Calm Calm - N/A   Haze
10:00 PM 60.8 °F 42.8 °F 52% 30.06 in 1.2 mi Calm Calm - N/A   Haze
11:00 PM 59.0 °F 41.0 °F 51% 30.06 in 1.2 mi Variable 1.2 mph - N/A   Smoke